EW3263 Weather Reports


Display with metric or nautical units.
time (UTC)temp
F
wind
direction
speed
MPH
gust
MPH
rain 1hr
in
rain 24hr
in
rain mn
in
humidity
%
barometer
mb
20260902170048 75 0.0 0.0 0.00 0.00 0.00 35 1021.7
20260902164544 74 0.0 0.0 0.00 0.00 0.00 37 1021.8
20260902163040 72 0.0 0.0 0.00 0.00 0.00 39 1021.7
20260902161535 71 0.0 0.0 0.00 0.00 0.00 43 1021.8
20260902160030 69 0.0 0.0 0.00 0.00 0.00 39 1021.8
20260902154527 70 0.0 0.0 0.00 0.00 0.00 35 1021.6
20260902153021 69 0.0 0.0 0.00 0.00 0.00 37 1021.5
20260902151518 69 0.0 0.0 0.00 0.00 0.00 35 1021.4
20260902150016 67 0.0 0.0 0.00 0.00 0.00 38 1021.6
20260902144509 63 0.0 0.0 0.00 0.00 0.00 38 1021.6
20260902143006 59 0.0 0.0 0.00 0.00 0.00 44 1021.7
20260902141601 57 0.0 0.0 0.00 0.00 0.00 42 1021.6
20260902140056 57 0.0 0.0 0.00 0.00 0.00 43 1021.4
20260902134552 57 0.0 0.0 0.00 0.00 0.00 41 1021.1
20260902133055 57 0.0 0.0 0.00 0.00 0.00 42 1020.8
20260902131543 57 0.0 0.0 0.00 0.00 0.00 42 1020.6
20260902130038 57 0.0 0.0 0.00 0.00 0.00 43 1020.6
20260902124536 57 0.0 0.0 0.00 0.00 0.00 44 1020.6
20260902123031 57 0.0 0.0 0.00 0.00 0.00 42 1020.7
20260902121525 57 0.0 0.0 0.00 0.00 0.00 45 1020.6
20260902120025 57 0.0 0.0 0.00 0.00 0.00 48 1020.6
20260902114516 57 0.0 0.0 0.00 0.00 0.00 49 1020.7
20260902113012 57 0.0 0.0 0.00 0.00 0.00 53 1020.6
20260902111523 56 0.0 0.0 0.00 0.00 0.00 55 1020.7
20260902110010 56 0.0 0.0 0.00 0.00 0.00 57 1020.8
20260902104610 56 0.0 0.0 0.00 0.00 0.00 56 1020.9
20260902103054 57 0.0 0.0 0.00 0.00 0.00 60 1021.0
20260902101550 57 0.0 0.0 0.00 0.00 0.00 62 1021.1
20260902100046 57 0.0 0.0 0.00 0.00 0.00 61 1021.2
20260902094545 57 0.0 0.0 0.00 0.00 0.00 63 1021.1
20260902093040 58 0.0 0.0 0.00 0.00 0.00 61 1021.1
20260902091533 58 0.0 0.0 0.00 0.00 0.00 61 1021.3
20260902090029 59 0.0 0.0 0.00 0.00 0.00 64 1021.3
20260902084533 59 0.0 0.0 0.00 0.00 0.00 63 1021.3
20260902083019 59 0.0 0.0 0.00 0.00 0.00 64 1021.2
20260902081516 60 0.0 0.0 0.00 0.00 0.00 65 1021.3
20260902080011 60 0.0 0.0 0.00 0.00 0.00 65 1021.4
20260902074506 61 0.0 0.0 0.00 0.00 0.00 64 1021.4
20260902073002 61 0.0 0.0 0.00 0.00 0.00 65 1021.3
20260902071559 61 0.0 0.0 0.00 0.00 0.00 65 1021.1
20260902070053 62 0.0 0.0 0.00 0.00 0.00 75 1021.0
20260902064549 62 0.0 0.0 0.00 0.00 0.00 78 1021.1
20260902063044 62 0.0 0.0 0.00 0.00 0.00 74 1021.1
20260902060037 63 0.0 0.0 0.00 0.00 0.00 74 1020.7
20260902054543 64 0.0 0.0 0.00 0.00 0.00 72 1020.7
20260902053027 64 0.0 0.0 0.00 0.00 0.00 70 1020.6
20260902051523 65 0.0 0.0 0.00 0.00 0.00 71 1020.6
20260902050019 65 0.0 0.0 0.00 0.00 0.00 70 1020.6
20260902044514 66 0.0 0.0 0.00 0.00 0.00 68 1020.7
20260902043015 67 0.0 0.0 0.00 0.00 0.00 67 1020.6
20260902041505 68 0.0 0.0 0.00 0.00 0.00 66 1020.3
20260902034557 68 0.0 0.0 0.00 0.00 0.00 65 1019.9
20260902033105 70 0.0 0.0 0.00 0.00 0.00 63 1019.6
20260902031548 70 0.0 0.0 0.00 0.00 0.00 61 1019.5
20260902030043 71 0.0 0.0 0.00 0.00 0.00 58 1019.4
20260902024539 72 0.0 0.0 0.00 0.00 0.00 56 1019.3
20260902023035 73 0.0 0.0 0.00 0.00 0.00 54 1019.1
20260902021530 74 0.0 0.0 0.00 0.00 0.00 53 1019.1
20260902020026 75 0.0 0.0 0.00 0.00 0.00 50 1019.0
20260902014530 76 0.0 0.0 0.00 0.00 0.00 49 1019.1
20260902013017 77 0.0 0.0 0.00 0.00 0.00 47 1019.1
20260902011513 78 0.0 0.0 0.00 0.00 0.00 46 1019.0
20260902010008 79 0.0 0.0 0.00 0.00 0.00 44 1019.1
20260902004506 80 0.0 0.0 0.00 0.00 0.00 41 1019.1
20260902003101 81 0.0 0.0 0.00 0.00 0.00 41 1019.0
20260902001556 82 0.0 0.0 0.00 0.00 0.00 41 1019.0
20260902000054 82 0.0 0.0 0.00 0.00 0.00 40 1019.0
20260901234557 82 0.0 0.0 0.00 0.00 0.00 42 1019.1
20260901233042 83 0.0 0.0 0.00 0.00 0.00 41 1019.2
20260901231538 84 0.0 0.0 0.00 0.00 0.00 40 1019.1
20260901230042 84 0.0 0.0 0.00 0.00 0.00 40 1019.2
20260901224530 85 0.0 0.0 0.00 0.00 0.00 39 1019.2
20260901223026 85 0.0 0.0 0.00 0.00 0.00 38 1019.2
20260901221521 86 0.0 0.0 0.00 0.00 0.00 37 1019.4
20260901220016 86 0.0 0.0 0.00 0.00 0.00 38 1019.4
20260901214512 86 0.0 0.0 0.00 0.00 0.00 40 1019.6
20260901213025 86 0.0 0.0 0.00 0.00 0.00 36 1019.5
20260901211504 87 0.0 0.0 0.00 0.00 0.00 34 1019.7
20260901210059 87 0.0 0.0 0.00 0.00 0.00 32 1019.7
20260901204555 87 0.0 0.0 0.00 0.00 0.00 29 1019.9
20260901203059 87 0.0 0.0 0.00 0.00 0.00 26 1019.9
20260901201547 87 0.0 0.0 0.00 0.00 0.00 25 1020.0
20260901200051 86 0.0 0.0 0.00 0.00 0.00 27 1020.1
20260901194537 85 0.0 0.0 0.00 0.00 0.00 30 1020.2
20260901193042 85 0.0 0.0 0.00 0.00 0.00 34 1020.3
20260901191530 84 0.0 0.0 0.00 0.00 0.00 32 1020.5
20260901190025 84 0.0 0.0 0.00 0.00 0.00 33 1020.5
20260901184530 83 0.0 0.0 0.00 0.00 0.00 32 1020.6
20260901183016 83 0.0 0.0 0.00 0.00 0.00 35 1020.8
20260901181516 81 0.0 0.0 0.00 0.00 0.00 39 1020.8
20260901180007 80 0.0 0.0 0.00 0.00 0.00 43 1020.9
20260901174503 79 0.0 0.0 0.00 0.00 0.00 45 1021.1
20260901173058 78 0.0 0.0 0.00 0.00 0.00 48 1021.0
20260901171605 76 0.0 0.0 0.00 0.00 0.00 49 1020.9